Brisbane, Australia

6:05 AM AEST on July 24, 2017 (GMT +1000)
Brisbane International

Weather History for YBBN - April, 2013

Change the Weather History Date:

Thursday, April 25, 2013

  Actual Average Record
Temperature  
Mean Temperature 69 °F -  
Max Temperature 78 °F 75 °F 81 °F (2015)
Min Temperature 60 °F 58 °F 51 °F (1999)
Cooling Degree Days 4    
Growing Degree Days 19 (Base 50)    
Moisture  
Dew Point 62 °F    
Average Humidity 79    
Maximum Humidity 94    
Minimum Humidity 48    
Precipitation  
Precipitation 0.00 in 0.13 in - ()
Sea Level Pressure  
Sea Level Pressure 30.09 in    
Wind  
Wind Speed 7 mph ()    
Max Wind Speed 10 mph    
Max Gust Speed -    
Visibility 8.0 miles    
Events      
Averages and records for this station are not official NWS values.
T = Trace of Precipitation, MM = Missing Value Source: Averaged Metar Reports

Daily Weather History Graph

Daily Weather History Graph

Search for Another Location

Airport or City:

Trip Planner

Search our weather history database for the weather conditions in past years. The results will help you decide how hot, cold, wet, or windy it might be!

Date:

Astronomy

Apr. 25, 2013 Rise Set
Actual Time 6:09 AM AEST 5:21 PM AEST
Civil Twilight 5:45 AM AEST 5:45 PM AEST
Nautical Twilight 5:18 AM AEST 6:12 PM AEST
Astronomical Twilight 4:50 AM AEST 6:39 PM AEST
Moon 4:49 PM AEST (4/25) 5:10 AM AEST (4/25)
Length of Visible Light 11h 59m
Length of Day
11h 11m
Waxing Gibbous, 99% of the Moon is Illuminated
Apr 25
Waxing Gibbous
Apr 26
Full
May 2
Last Quarter
May 10
New
May 18
First Quarter

Hourly Weather History & Observations

Time (AEST) Temp. Dew Point Humidity Pressure Visibility Wind Dir Wind Speed Gust Speed Precip Events Conditions
12:00 AM 63 °F 60 °F 88% 30.08 in 25 mi WSW 5.8 mph - -   Partly Cloudy
12:00 AM 62.6 °F 60.8 °F 94% 30.06 in - WSW 5.8 mph - N/A   Clear
12:30 AM 62.6 °F 60.8 °F 94% 30.06 in - SSW 6.9 mph - N/A   Clear
1:00 AM 63 °F 60 °F 88% 30.07 in - SSW 8.1 mph - -  
1:00 AM 62.6 °F 60.8 °F 94% 30.06 in - SSW 8.1 mph - N/A   Clear
1:30 AM 62.6 °F 59.0 °F 88% 30.06 in - SSW 6.9 mph - N/A   Clear
2:00 AM 60.8 °F 59.0 °F 94% 30.06 in - SSW 8.1 mph - N/A   Clear
2:30 AM 60.8 °F 59.0 °F 94% 30.06 in 6.2 mi SSW 8.1 mph - N/A   Mostly Cloudy
3:00 AM 62 °F 59 °F 88% 30.07 in 19 mi SSW 8.1 mph - -   Partly Cloudy
3:00 AM 60.8 °F 59.0 °F 94% 30.06 in 6.2 mi SSW 8.1 mph - N/A   Partly Cloudy
3:30 AM 60.8 °F 59.0 °F 94% 30.06 in 6.2 mi SSW 5.8 mph - N/A   Partly Cloudy
4:00 AM 61 °F 58 °F 88% 30.06 in - SSW 8.1 mph - -  
4:00 AM 60.8 °F 59.0 °F 94% 30.06 in 6.2 mi SSW 8.1 mph - N/A   Partly Cloudy
4:30 AM 60.8 °F 59.0 °F 94% 30.06 in 6.2 mi SSW 8.1 mph - N/A   Partly Cloudy
5:00 AM 60.8 °F 59.0 °F 94% 30.06 in 6.2 mi SSW 8.1 mph - N/A   Partly Cloudy
5:30 AM 60.8 °F 59.0 °F 94% 30.06 in 6.2 mi SSW 8.1 mph - N/A   Partly Cloudy
6:00 AM 60 °F 58 °F 91% 30.10 in 16 mi SSW 9.2 mph - -   Haze
6:00 AM 60.8 °F 59.0 °F 94% 30.09 in 6.2 mi SSW 9.2 mph - N/A   Partly Cloudy
6:30 AM 60.8 °F 59.0 °F 94% 30.09 in 6.2 mi SSW 10.4 mph - N/A   Partly Cloudy
7:00 AM 63 °F 59 °F 84% 30.12 in - SSW 9.2 mph - -  
7:00 AM 62.6 °F 59.0 °F 88% 30.09 in 6.2 mi SSW 9.2 mph - N/A   Partly Cloudy
7:30 AM 64.4 °F 60.8 °F 88% 30.12 in 6.2 mi SSW 9.2 mph - N/A   Partly Cloudy
8:00 AM 66.2 °F 60.8 °F 83% 30.12 in 6.2 mi SSW 9.2 mph - N/A   Partly Cloudy
8:30 AM 68.0 °F 60.8 °F 78% 30.12 in 6.2 mi SSW 10.4 mph - N/A   Partly Cloudy
9:00 AM 71 °F 61 °F 63% 30.14 in 19 mi SSW 9.2 mph - -   Partly Cloudy
9:00 AM 71.6 °F 60.8 °F 69% 30.12 in 6.2 mi SSW 9.2 mph - N/A   Partly Cloudy
9:30 AM 73.4 °F 60.8 °F 65% 30.12 in 6.2 mi SSW 8.1 mph - N/A   Partly Cloudy
10:00 AM 75 °F 62 °F 56% 30.13 in - South 5.8 mph - -  
10:00 AM 75.2 °F 62.6 °F 65% 30.12 in 6.2 mi South 5.8 mph - N/A   Partly Cloudy
10:30 AM 77.0 °F 62.6 °F 61% 30.12 in 6.2 mi WSW 5.8 mph - N/A   Partly Cloudy
11:00 AM 77.0 °F 60.8 °F 57% 30.12 in 6.2 mi NNE 2.3 mph - N/A   Partly Cloudy
11:30 AM 75.2 °F 62.6 °F 65% 30.09 in 6.2 mi North 8.1 mph - N/A   Scattered Clouds
12:00 PM 78.8 °F 60.8 °F 54% 30.09 in 6.2 mi North 8.1 mph - N/A   Scattered Clouds
1:00 PM 77 °F 63 °F 53% 30.08 in - NE 6.9 mph - -  
1:00 PM 77.0 °F 62.6 °F 61% 30.06 in 6.2 mi NE 6.9 mph - N/A   Scattered Clouds
1:30 PM 78.8 °F 62.6 °F 57% 30.06 in 6.2 mi NNE 9.2 mph - N/A   Partly Cloudy
2:00 PM 77.0 °F 64.4 °F 65% 30.04 in 6.2 mi NE 10.4 mph - N/A   Partly Cloudy
2:30 PM 77.0 °F 60.8 °F 57% 30.04 in 6.2 mi NE 10.4 mph - N/A   Partly Cloudy
3:00 PM 77 °F 61 °F 48% 30.05 in 19 mi NE 9.2 mph - -   Partly Cloudy
3:00 PM 77.0 °F 60.8 °F 57% 30.04 in 6.2 mi NNE 9.2 mph - N/A   Partly Cloudy
3:30 PM 77.0 °F 60.8 °F 57% 30.04 in 6.2 mi NNE 9.2 mph - N/A   Partly Cloudy
4:00 PM 76 °F 60 °F 49% 30.05 in - NNE 9.2 mph - -  
4:00 PM 77.0 °F 60.8 °F 57% 30.04 in 6.2 mi NNE 9.2 mph - N/A   Partly Cloudy
4:30 PM 75.2 °F 62.6 °F 65% 30.06 in 6.2 mi NE 10.4 mph - N/A   Partly Cloudy
5:00 PM 73.4 °F 64.4 °F 73% 30.06 in 6.2 mi NE 8.1 mph - N/A   Partly Cloudy
5:30 PM 71.6 °F 64.4 °F 78% 30.06 in 6.2 mi NE 8.1 mph - N/A   Partly Cloudy
6:00 PM 71 °F 64 °F 73% 30.10 in 19 mi NE 8.1 mph - -   Partly Cloudy
6:00 PM 69.8 °F 64.4 °F 83% 30.09 in 6.2 mi NE 8.1 mph - N/A   Partly Cloudy
6:30 PM 69.8 °F 64.4 °F 83% 30.09 in - NE 5.8 mph - N/A   Clear
7:00 PM 69 °F 65 °F 81% 30.12 in - NE 5.8 mph - -  
7:00 PM 69.8 °F 64.4 °F 83% 30.09 in - NE 5.8 mph - N/A   Clear
7:30 PM 68.0 °F 64.4 °F 88% 30.12 in - NNE 4.6 mph - N/A   Clear
8:00 PM 68.0 °F 64.4 °F 88% 30.12 in - NNE 3.5 mph - N/A   Clear
8:30 PM 68.0 °F 64.4 °F 88% 30.12 in - North 3.5 mph - N/A   Clear
9:00 PM 69 °F 65 °F 83% 30.15 in 19 mi WNW 5.8 mph - -   Partly Cloudy
9:00 PM 68.0 °F 64.4 °F 88% 30.12 in - WNW 5.8 mph - N/A   Clear
9:30 PM 68.0 °F 64.4 °F 88% 30.15 in 6.2 mi WNW 2.3 mph - N/A   Partly Cloudy
10:00 PM 67 °F 64 °F 89% 30.16 in - NW 3.5 mph - -  
10:00 PM 68.0 °F 64.4 °F 88% 30.15 in 6.2 mi NW 3.5 mph - N/A   Partly Cloudy
10:30 PM 66.2 °F 64.4 °F 94% 30.15 in 6.2 mi SW 4.6 mph - N/A   Partly Cloudy
11:00 PM 66.2 °F 62.6 °F 88% 30.15 in 6.2 mi Calm Calm - N/A   Partly Cloudy
11:30 PM 64.4 °F 62.6 °F 94% 30.12 in 6.2 mi Calm Calm - N/A   Partly Cloudy